User: anonymous   Login
Location: Sternwarte ZA, Rosenfeld-Brittheim
(48.2889°N, 8.6789°E)
Time: 08:11:14
(UTC+01:00)
Language:

ISS - Orbit

View from above orbital plane
View from above orbital plane
View from above satellite
View from above satellite

Ground track
Ground track

The orbit data is extracted from the following two-line orbital elements,

1 25544U 98067A   19023.08294898  .00016717  00000-0  10270-3 0  9055
2 25544  51.6404   2.9176 0004609 294.8670  65.1992 15.53178236 32707
Epoch (UTC): 23 January 2019 01:59:26
Eccentricity: 0.0004609
inclination: 51.6404°
perigee height: 404 km
apogee height: 410 km
right ascension of ascending node: 2.9176°
argument of perigee: 294.8670°
revolutions per day: 15.53178236
mean anomaly at epoch: 65.1992°
orbit number at epoch: 3270

The dashed part of the orbit path shows where the satellite is in the earth's shadow,  

DLR